| time (UTC) | temp F | wind direction | speed knots | gust knots | rain 1hr in | rain 24hr in | rain mn in | humidity % | barometer mb |
| 20260903144513 | 51 | 142 | 0.0 | 0.0 | 0.00 | 0.00 | 0.21 | 94 | 1017.6 |
| 20260903143048 | 51 | 81 | 0.0 | 0.0 | 0.00 | 0.00 | 0.18 | 94 | 1017.4 |
| 20260903141550 | 51 | 66 | 0.0 | 0.0 | 0.00 | 0.00 | 0.17 | 94 | 1017.3 |
| 20260903140037 | 51 | 76 | 0.0 | 0.0 | 0.00 | 0.00 | 0.16 | 94 | 1017.0 |
| 20260903134601 | 51 | 56 | 0.0 | 0.0 | 0.00 | 0.00 | 0.16 | 94 | 1017.0 |
| 20260903133109 | 51 | 57 | 0.0 | 0.0 | 0.00 | 0.00 | 0.16 | 94 | 1016.6 |
| 20260903133001 | 51 | 59 | 0.0 | 0.0 | 0.00 | 0.00 | 0.16 | 94 | 1016.6 |
| 20260903131531 | 51 | 78 | 0.0 | 0.0 | 0.00 | 0.00 | 0.16 | 93 | 1016.6 |
| 20260903130125 | 51 | 78 | 0.0 | 0.0 | 0.00 | 0.00 | 0.16 | 93 | 1016.5 |
| 20260903124531 | 51 | 67 | 0.0 | 0.0 | 0.00 | 0.00 | 0.16 | 93 | 1016.4 |
| 20260903123054 | 51 | 69 | 0.0 | 0.0 | 0.00 | 0.00 | 0.16 | 93 | 1016.2 |
| 20260903121556 | 51 | 75 | 0.0 | 0.0 | 0.00 | 0.00 | 0.16 | 93 | 1016.1 |
| 20260903120005 | 51 | 63 | 0.0 | 0.0 | 0.00 | 0.00 | 0.16 | 93 | 1016.0 |
| 20260903114509 | 51 | 58 | 0.0 | 0.0 | 0.00 | 0.00 | 0.16 | 92 | 1016.1 |
| 20260903113057 | 51 | 58 | 0.0 | 0.0 | 0.00 | 0.00 | 0.16 | 93 | 1016.1 |
| 20260903111532 | 51 | 61 | 0.0 | 0.0 | 0.00 | 0.00 | 0.16 | 92 | 1016.0 |
| 20260903110020 | 51 | 59 | 0.0 | 0.0 | 0.00 | 0.00 | 0.16 | 92 | 1015.9 |
| 20260903104533 | 51 | 28 | 0.0 | 0.0 | 0.00 | 0.00 | 0.15 | 92 | 1016.0 |
| 20260903103026 | 51 | 27 | 0.0 | 0.0 | 0.00 | 0.00 | 0.15 | 91 | 1016.0 |
| 20260903101553 | 51 | 27 | 0.0 | 0.0 | 0.00 | 0.00 | 0.13 | 91 | 1016.1 |
| 20260903100042 | 51 | 28 | 0.0 | 0.0 | 0.00 | 0.00 | 0.12 | 91 | 1015.8 |
| 20260903094518 | 52 | 27 | 0.0 | 0.0 | 0.00 | 0.00 | 0.11 | 91 | 1015.7 |
| 20260903093023 | 52 | 28 | 0.0 | 0.0 | 0.00 | 0.00 | 0.10 | 90 | 1015.7 |
| 20260903091549 | 52 | 27 | 0.0 | 0.0 | 0.00 | 0.00 | 0.09 | 90 | 1015.6 |
| 20260903090021 | 52 | 68 | 0.0 | 0.0 | 0.00 | 0.00 | 0.08 | 90 | 1015.4 |
| 20260903084548 | 52 | 24 | 0.0 | 0.0 | 0.00 | 0.00 | 0.07 | 89 | 1015.6 |
| 20260903083101 | 52 | 22 | 0.0 | 0.0 | 0.00 | 0.00 | 0.05 | 88 | 1015.6 |
| 20260903081529 | 53 | 76 | 0.0 | 0.0 | 0.00 | 0.00 | 0.04 | 87 | 1015.7 |
| 20260903080036 | 53 | 60 | 0.9 | 0.0 | 0.00 | 0.00 | 0.03 | 87 | 1015.3 |
| 20260903074542 | 54 | 60 | 0.0 | 0.0 | 0.00 | 0.00 | 0.03 | 86 | 1015.2 |
| 20260903073040 | 54 | 69 | 0.9 | 0.0 | 0.00 | 0.00 | 0.02 | 84 | 1015.1 |
| 20260903071508 | 55 | 69 | 0.0 | 0.0 | 0.00 | 0.00 | 0.01 | 82 | 1015.1 |
| 20260903070019 | 56 | 45 | 0.0 | 0.0 | 0.00 | 0.00 | 0.00 | 78 | 1014.9 |
| 20260903064545 | 57 | 70 | 0.0 | 0.0 | 0.00 | 0.00 | 0.00 | 74 | 1015.0 |
| 20260903063055 | 57 | 72 | 0.0 | 0.0 | 0.00 | 0.00 | 0.00 | 70 | 1014.7 |
| 20260903061552 | 57 | 78 | 0.0 | 0.0 | 0.00 | 0.00 | 0.00 | 70 | 1014.8 |
| 20260903060055 | 57 | 71 | 0.0 | 0.0 | 0.00 | 0.00 | 0.00 | 69 | 1014.7 |
| 20260903054540 | 57 | 64 | 0.9 | 0.0 | 0.00 | 0.00 | 0.00 | 69 | 1014.7 |
| 20260903053040 | 58 | 63 | 0.0 | 0.0 | 0.00 | 0.00 | 0.00 | 70 | 1014.4 |
| 20260903051541 | 59 | 38 | 0.9 | 0.0 | 0.00 | 0.00 | 0.00 | 68 | 1014.3 |
| 20260903050037 | 60 | 17 | 0.9 | 0.0 | 0.00 | 0.00 | 0.00 | 65 | 1014.1 |
| 20260903044507 | 62 | 104 | 0.0 | 0.0 | 0.00 | 0.00 | 0.00 | 64 | 1013.9 |
| 20260903043022 | 63 | 289 | 0.0 | 0.0 | 0.00 | 0.00 | 0.00 | 60 | 1013.6 |
| 20260903041541 | 64 | 284 | 0.9 | 0.0 | 0.00 | 0.00 | 0.00 | 57 | 1013.5 |
| 20260903040058 | 66 | 303 | 0.9 | 0.0 | 0.00 | 0.00 | 0.00 | 48 | 1013.5 |
| 20260903034512 | 67 | 225 | 1.7 | 0.0 | 0.00 | 0.00 | 0.00 | 37 | 1013.2 |
| 20260903033042 | 67 | 231 | 1.7 | 0.0 | 0.00 | 0.00 | 0.00 | 37 | 1013.1 |
| 20260903031523 | 67 | 190 | 0.9 | 0.0 | 0.00 | 0.00 | 0.00 | 37 | 1012.8 |
| 20260903030036 | 67 | 199 | 1.7 | 0.0 | 0.00 | 0.00 | 0.00 | 37 | 1012.5 |
| 20260903024536 | 67 | 187 | 1.7 | 0.0 | 0.00 | 0.00 | 0.00 | 36 | 1012.4 |
| 20260903023008 | 67 | 210 | 1.7 | 0.0 | 0.00 | 0.00 | 0.00 | 36 | 1012.3 |
| 20260903021536 | 68 | 150 | 0.9 | 0.0 | 0.00 | 0.00 | 0.00 | 36 | 1012.3 |
| 20260903020007 | 68 | 178 | 1.7 | 0.0 | 0.00 | 0.00 | 0.00 | 35 | 1012.4 |
| 20260903014602 | 68 | 239 | 0.9 | 0.0 | 0.00 | 0.00 | 0.00 | 34 | 1012.4 |
| 20260903013050 | 68 | 193 | 0.9 | 0.0 | 0.00 | 0.00 | 0.00 | 34 | 1012.4 |
| 20260903011552 | 69 | 217 | 1.7 | 0.0 | 0.00 | 0.00 | 0.00 | 34 | 1012.4 |
| 20260903010040 | 69 | 227 | 1.7 | 0.0 | 0.00 | 0.00 | 0.00 | 33 | 1012.2 |
| 20260903004533 | 70 | 224 | 2.6 | 0.0 | 0.00 | 0.00 | 0.00 | 32 | 1012.2 |
| 20260903003046 | 71 | 186 | 1.7 | 0.0 | 0.00 | 0.00 | 0.00 | 31 | 1012.0 |
| 20260903001518 | 70 | 177 | 2.6 | 0.0 | 0.00 | 0.00 | 0.00 | 33 | 1012.1 |
| 20260903000010 | 68 | 250 | 2.6 | 0.0 | 0.00 | 0.00 | 0.00 | 35 | 1012.0 |
| 20260902203039 | 64 | 59 | 0.9 | 3.5 | 0.00 | 0.17 | 0.17 | 72 | 1013.6 |
| 20260902201521 | 65 | 51 | 0.0 | 2.6 | 0.00 | 0.17 | 0.17 | 71 | 1013.6 |
| 20260902200058 | 64 | 26 | 0.0 | 2.6 | 0.00 | 0.17 | 0.17 | 74 | 1013.8 |
| 20260902194550 | 63 | 30 | 0.0 | 4.3 | 0.00 | 0.17 | 0.17 | 73 | 1014.0 |
| 20260902193038 | 63 | 35 | 0.0 | 0.9 | 0.00 | 0.17 | 0.17 | 73 | 1014.2 |
| 20260902191520 | 61 | 268 | 0.0 | 0.9 | 0.00 | 0.17 | 0.17 | 76 | 1014.3 |
| 20260902190010 | 61 | 259 | 0.0 | 0.9 | 0.00 | 0.17 | 0.17 | 83 | 1014.4 |
| 20260902184558 | 59 | 268 | 0.0 | 5.2 | 0.00 | 0.17 | 0.17 | 86 | 1014.5 |
| 20260902183054 | 56 | 261 | 1.7 | 3.5 | 0.00 | 0.17 | 0.17 | 87 | 1014.5 |
| 20260902181556 | 56 | 286 | 0.0 | 2.6 | 0.00 | 0.17 | 0.17 | 89 | 1014.5 |
| 20260902180053 | 55 | 88 | 0.0 | 0.0 | 0.00 | 0.17 | 0.17 | 89 | 1014.4 |
| 20260902174602 | 54 | 120 | 0.0 | 1.7 | 0.00 | 0.17 | 0.17 | 90 | 1014.4 |
| 20260902173043 | 53 | 88 | 0.0 | 7.0 | 0.00 | 0.17 | 0.17 | 92 | 1014.5 |